Caro, MI

10:35 AM EST on December 15, 2019 (GMT -0500)
Caro

Weather History for KCFS - May, 2019

Change the Weather History Date:

Thursday, May 23, 2019

  Actual Average (WUND) Record (WUND)
Temperature  
Mean Temperature 62 °F -  
Max Temperature 73 °F - - (-1)
Min Temperature 52 °F - - (-1)
Degree Days  
Heating Degree Days 2    
Growing Degree Days 12 (Base 50)    
Moisture  
Dew Point 55 °F    
Average Humidity 69    
Maximum Humidity 97    
Minimum Humidity 39    
Precipitation  
Precipitation 0.00 in - - ()
Sea Level Pressure  
Sea Level Pressure 29.91 in    
Wind  
Wind Speed 9 mph (SW)    
Max Wind Speed 24 mph    
Max Gust Speed 34 mph    
Visibility 10 miles    
Events Rain    
Averages and records for this station are not official NWS values.
T = Trace of Precipitation, MM = Missing Value Source: NWS Daily Summary

Daily Weather History Graph

Daily Weather History Graph

Search for Another Location

Airport or City:

Astronomy

May. 23, 2019 Rise Set
Actual Time 6:01 AM EDT 8:59 PM EDT
Civil Twilight 5:28 AM EDT 9:33 PM EDT
Nautical Twilight 4:44 AM EDT 10:17 PM EDT
Astronomical Twilight 3:54 AM EDT 11:08 PM EDT
Moon 12:42 AM EDT (5/23) 10:03 AM EDT (5/23)
Length of Visible Light 16h 05m
Length of Day
14h 57m
Waning Gibbous, 77% of the Moon is Illuminated
May 23
Waning Gibbous
May 26
Last Quarter
Jun 3
New
Jun 10
First Quarter
Jun 17
Full

Hourly Weather History & Observations

Time (EDT) Temp. Dew Point Humidity Pressure Visibility Wind Dir Wind Speed Gust Speed Precip Events Conditions
12:15 AM 62.8 °F 57.7 °F 84% 29.93 in 10.0 mi South 4.6 mph - N/A   Clear
12:16 AM 62.8 °F 57.7 °F 84% 29.93 in 10.0 mi South 6.9 mph - N/A   Clear
12:35 AM 63.1 °F 58.3 °F 84% 29.93 in 10.0 mi South 8.1 mph - N/A   Clear
12:36 AM 63.1 °F 58.3 °F 84% 29.93 in 10.0 mi South 8.1 mph - N/A   Clear
12:55 AM 63.5 °F 58.5 °F 84% 29.92 in 10.0 mi South 6.9 mph - N/A   Clear
1:15 AM 63.7 °F 58.6 °F 84% 29.93 in 10.0 mi South 6.9 mph - N/A   Clear
1:16 AM 63.5 °F 58.6 °F 84% 29.93 in 10.0 mi South 6.9 mph - N/A   Clear
1:35 AM 64.0 °F 59.0 °F 84% 29.91 in 10.0 mi South 9.2 mph - N/A   Clear
1:36 AM 64.0 °F 59.0 °F 84% 29.91 in 10.0 mi South 9.2 mph - N/A   Clear
1:55 AM 64.8 °F 59.2 °F 82% 29.91 in 10.0 mi South 10.4 mph - N/A   Clear
1:56 AM 64.8 °F 59.2 °F 82% 29.91 in 10.0 mi South 10.4 mph - N/A   Clear
2:15 AM 64.8 °F 59.4 °F 83% 29.91 in 10.0 mi South 6.9 mph - N/A   Clear
2:35 AM 64.9 °F 59.4 °F 82% 29.91 in 10.0 mi SSW 5.8 mph - N/A   Clear
2:55 AM 64.8 °F 59.5 °F 83% 29.92 in 10.0 mi SSW 6.9 mph - N/A   Clear
2:56 AM 64.8 °F 59.5 °F 83% 29.92 in 10.0 mi SSW 6.9 mph - N/A   Clear
3:15 AM 64.6 °F 59.9 °F 85% 29.92 in 10.0 mi SSW 5.8 mph - N/A   Clear
3:35 AM 64.2 °F 59.9 °F 86% 29.90 in 10.0 mi Calm Calm - N/A   Scattered Clouds
3:36 AM 64.2 °F 59.9 °F 86% 29.90 in 10.0 mi Calm Calm - N/A   Scattered Clouds
3:55 AM 64.0 °F 60.1 °F 87% 29.90 in 10.0 mi South 3.5 mph - N/A Rain Light Rain
4:15 AM 63.7 °F 60.1 °F 88% 29.91 in 10.0 mi SSW 5.8 mph - N/A   Scattered Clouds
4:16 AM 63.7 °F 60.1 °F 88% 29.91 in 10.0 mi SSW 5.8 mph - N/A   Clear
4:35 AM 63.9 °F 60.4 °F 89% 29.91 in 10.0 mi SSW 3.5 mph - N/A   Scattered Clouds
4:36 AM 63.9 °F 60.3 °F 88% 29.91 in 10.0 mi SSW 3.5 mph - N/A   Scattered Clouds
4:55 AM 63.5 °F 60.4 °F 90% 29.90 in 10.0 mi South 3.5 mph - N/A   Mostly Cloudy
5:15 AM 63.9 °F 60.8 °F 90% 29.86 in 10.0 mi ESE 3.5 mph - N/A   Mostly Cloudy
5:35 AM 64.2 °F 60.8 °F 89% 29.89 in 10.0 mi South 3.5 mph - N/A   Mostly Cloudy
5:55 AM 63.0 °F 60.8 °F 93% 29.89 in 10.0 mi South 4.6 mph - N/A   Overcast
5:56 AM 63.0 °F 60.8 °F 93% 29.89 in 10.0 mi South 4.6 mph - N/A   Overcast
6:15 AM 63.3 °F 61.0 °F 92% 29.87 in 7.0 mi WSW 9.2 mph - N/A Rain Heavy Rain
6:35 AM 63.9 °F 61.9 °F 93% 29.85 in 5.0 mi South 5.8 mph - N/A Rain Light Rain
6:55 AM 63.7 °F 62.2 °F 95% 29.84 in 7.0 mi SE 3.5 mph - N/A   Overcast
7:15 AM 63.5 °F 62.6 °F 97% 29.84 in 4.0 mi SSE 3.5 mph - N/A   Overcast
7:35 AM 63.9 °F 62.2 °F 94% 29.85 in 10.0 mi SSW 4.6 mph - N/A   Overcast
7:36 AM 63.9 °F 62.2 °F 94% 29.85 in 10.0 mi SSW 4.6 mph - N/A   Overcast
7:55 AM 64.8 °F 63.0 °F 94% 29.84 in 10.0 mi South 10.4 mph - N/A   Mostly Cloudy
8:15 AM 65.7 °F 62.8 °F 90% 29.84 in 10.0 mi SSW 11.5 mph - N/A   Mostly Cloudy
8:35 AM 65.7 °F 62.8 °F 90% 29.85 in 5.0 mi SSW 16.1 mph 21.9 mph N/A Rain Heavy Rain
8:55 AM 66.0 °F 63.0 °F 90% 29.83 in 10.0 mi SSW 12.7 mph 21.9 mph N/A   Overcast
8:56 AM 66.0 °F 63.1 °F 90% 29.83 in 10.0 mi SSW 12.7 mph 21.9 mph N/A   Overcast
9:15 AM 66.4 °F 63.1 °F 89% 29.84 in 10.0 mi SSW 11.5 mph 18.4 mph N/A   Overcast
9:35 AM 66.4 °F 63.1 °F 89% 29.84 in 10.0 mi SSW 11.5 mph 18.4 mph N/A   Overcast
9:55 AM 68.5 °F 64.2 °F 86% 29.84 in 10.0 mi WSW 10.4 mph 17.3 mph N/A   Overcast
10:15 AM 68.2 °F 63.1 °F 84% 29.84 in 10.0 mi WSW 10.4 mph 27.6 mph N/A   Overcast
10:16 AM 68.2 °F 63.3 °F 84% 29.84 in 10.0 mi WSW 11.5 mph 27.6 mph N/A   Overcast
10:35 AM 70.5 °F 64.0 °F 80% 29.84 in 10.0 mi WSW 15.0 mph 21.9 mph N/A   Mostly Cloudy
10:55 AM 71.1 °F 63.1 °F 76% 29.84 in 10.0 mi WSW 17.3 mph 25.3 mph N/A   Mostly Cloudy
11:15 AM 71.8 °F 61.3 °F 70% 29.84 in 10.0 mi WSW 18.4 mph 31.1 mph N/A   Scattered Clouds
11:16 AM 72.0 °F 61.2 °F 69% 29.84 in 10.0 mi WSW 18.4 mph 31.1 mph N/A   Scattered Clouds
11:35 AM 71.4 °F 60.1 °F 67% 29.85 in 10.0 mi WSW 15.0 mph 27.6 mph N/A   Scattered Clouds
11:36 AM 71.4 °F 60.3 °F 68% 29.85 in 10.0 mi WSW 17.3 mph 27.6 mph N/A   Scattered Clouds
11:55 AM 72.0 °F 60.1 °F 66% 29.85 in 10.0 mi SW 18.4 mph 28.8 mph N/A   Scattered Clouds
11:56 AM 72.1 °F 60.1 °F 66% 29.84 in 10.0 mi WSW 17.3 mph 28.8 mph N/A   Scattered Clouds
12:35 PM 72.3 °F 55.9 °F 56% 29.86 in 10.0 mi WSW 15.0 mph 26.5 mph N/A   Clear
12:55 PM 72.5 °F 54.3 °F 53% 29.86 in 10.0 mi WSW 21.9 mph 32.2 mph N/A   Scattered Clouds
1:15 PM 72.7 °F 52.2 °F 48% 29.86 in 10.0 mi West 24.2 mph 32.2 mph N/A   Scattered Clouds
1:16 PM 72.7 °F 52.0 °F 48% 29.86 in 10.0 mi WSW 21.9 mph 32.2 mph N/A   Scattered Clouds
1:35 PM 73.4 °F 52.5 °F 48% 29.87 in 10.0 mi West 24.2 mph 34.5 mph N/A   Clear
1:36 PM 73.4 °F 52.3 °F 48% 29.87 in 10.0 mi West 24.2 mph 34.5 mph N/A   Clear
1:55 PM 73.4 °F 51.8 °F 47% 29.86 in 10.0 mi WSW 18.4 mph 27.6 mph N/A   Clear
2:15 PM 73.6 °F 51.8 °F 46% 29.86 in 10.0 mi WSW 17.3 mph 29.9 mph N/A   Scattered Clouds
2:58 PM 73.6 °F 47.8 °F 40% 29.87 in 10.0 mi West 21.9 mph 31.1 mph N/A   Scattered Clouds
3:15 PM 73.4 °F 47.3 °F 39% 29.87 in 10.0 mi West 19.6 mph 31.1 mph N/A   Clear
3:16 PM 73.4 °F 46.9 °F 39% 29.87 in 10.0 mi West 20.7 mph 31.1 mph N/A   Clear
3:35 PM 72.9 °F 47.7 °F 41% 29.87 in 10.0 mi SW 17.3 mph 24.2 mph N/A   Clear
3:36 PM 72.9 °F 47.8 °F 41% 29.87 in 10.0 mi WSW 18.4 mph 26.5 mph N/A   Clear
3:55 PM 73.2 °F 48.7 °F 42% 29.87 in 10.0 mi WSW 15.0 mph 25.3 mph N/A   Clear
3:56 PM 73.4 °F 48.9 °F 42% 29.87 in 10.0 mi SW 17.3 mph 25.3 mph N/A   Clear
4:15 PM 72.9 °F 48.7 °F 42% 29.89 in 10.0 mi WSW 17.3 mph 31.1 mph N/A   Clear
4:35 PM 72.9 °F 49.1 °F 43% 29.89 in 10.0 mi WSW 16.1 mph 32.2 mph N/A   Clear
4:55 PM 72.9 °F 49.6 °F 44% 29.89 in 10.0 mi WSW 16.1 mph 27.6 mph N/A   Scattered Clouds
5:15 PM 71.8 °F 48.6 °F 44% 29.90 in 10.0 mi WSW 13.8 mph 27.6 mph N/A   Scattered Clouds
5:16 PM 71.6 °F 48.6 °F 44% 29.90 in 10.0 mi WSW 15.0 mph 27.6 mph N/A   Scattered Clouds
5:35 PM 72.7 °F 49.1 °F 43% 29.90 in 10.0 mi West 20.7 mph 28.8 mph N/A   Scattered Clouds
5:55 PM 71.6 °F 49.1 °F 45% 29.91 in 10.0 mi West 18.4 mph 27.6 mph N/A   Clear
6:15 PM 70.3 °F 49.6 °F 48% 29.92 in 10.0 mi West 16.1 mph 25.3 mph N/A   Scattered Clouds
6:16 PM 70.5 °F 49.8 °F 48% 29.92 in 10.0 mi West 17.3 mph 25.3 mph N/A   Scattered Clouds
6:35 PM 70.3 °F 48.9 °F 47% 29.93 in 10.0 mi WNW 16.1 mph 26.5 mph N/A   Mostly Cloudy
6:36 PM 70.2 °F 48.7 °F 46% 29.93 in 10.0 mi WNW 17.3 mph 26.5 mph N/A   Mostly Cloudy
6:55 PM 69.4 °F 48.2 °F 47% 29.94 in 10.0 mi WNW 17.3 mph 23.0 mph N/A   Scattered Clouds
7:15 PM 69.1 °F 47.8 °F 47% 29.95 in 10.0 mi West 17.3 mph 20.7 mph N/A   Clear
7:16 PM 68.9 °F 47.8 °F 47% 29.95 in 10.0 mi WNW 15.0 mph 20.7 mph N/A   Clear
7:35 PM 68.2 °F 47.3 °F 47% 29.96 in 10.0 mi WNW 16.1 mph 23.0 mph N/A   Clear
7:55 PM 67.1 °F 47.1 °F 49% 29.97 in 10.0 mi WNW 13.8 mph 23.0 mph N/A   Clear
7:56 PM 67.1 °F 47.1 °F 49% 29.97 in 10.0 mi WNW 11.5 mph 20.7 mph N/A   Clear
8:15 PM 65.8 °F 47.3 °F 51% 29.98 in 10.0 mi West 13.8 mph 20.7 mph N/A   Scattered Clouds
8:35 PM 65.3 °F 47.3 °F 52% 29.99 in 10.0 mi West 11.5 mph - N/A   Scattered Clouds
8:55 PM 64.6 °F 47.5 °F 54% 30.00 in 10.0 mi West 8.1 mph - N/A   Mostly Cloudy
8:56 PM 64.6 °F 47.5 °F 54% 30.00 in 10.0 mi West 8.1 mph - N/A   Mostly Cloudy
9:15 PM 63.5 °F 48.2 °F 57% 30.00 in 10.0 mi NW 5.8 mph - N/A   Mostly Cloudy
9:16 PM 63.5 °F 48.2 °F 57% 30.00 in 10.0 mi NW 5.8 mph - N/A   Mostly Cloudy
9:35 PM 61.9 °F 48.4 °F 61% 30.01 in 10.0 mi NW 4.6 mph - N/A   Scattered Clouds
9:55 PM 61.0 °F 48.6 °F 64% 30.01 in 10.0 mi NW 4.6 mph - N/A   Clear
10:15 PM 60.3 °F 48.4 °F 65% 30.02 in 10.0 mi WNW 3.5 mph - N/A   Clear
10:16 PM 60.3 °F 48.4 °F 65% 30.02 in 10.0 mi WNW 3.5 mph - N/A   Clear
10:35 PM 57.4 °F 48.7 °F 73% 30.03 in 10.0 mi Calm Calm - N/A   Clear
10:36 PM 57.4 °F 48.7 °F 73% 30.03 in 10.0 mi Calm Calm - N/A   Clear
10:55 PM 56.5 °F 49.1 °F 76% 30.04 in 10.0 mi Calm Calm - N/A   Clear
11:15 PM 56.1 °F 49.1 °F 77% 30.05 in 10.0 mi Calm Calm - N/A   Clear
11:35 PM 54.9 °F 48.2 °F 78% 30.05 in 10.0 mi Calm Calm - N/A   Clear
11:36 PM 54.9 °F 48.2 °F 78% 30.05 in 10.0 mi Calm Calm - N/A   Clear
11:55 PM 52.3 °F 48.2 °F 86% 30.05 in 10.0 mi Calm Calm - N/A   Clear
11:56 PM 52.2 °F 48.2 °F 86% 30.05 in 10.0 mi Calm Calm - N/A   Clear